Time,TemperatureF,DewpointF,PressureIn,WindDirection,WindDirectionDegrees,WindSpeedMPH,WindSpeedGustMPH,Humidity,HourlyPrecipIn,Conditions,Clouds,dailyrainin,SoftwareType,DateUTC
2013-01-29 00:00:00,68.9,28.5,30.01,ESE,112,1.0,7.0,22,0.00,,,-99.99,WeatherLink 5.7,2013-01-29 06:00:00,
2013-01-29 00:30:00,68.9,28.5,30.00,SE,135,3.0,15.0,22,0.00,,,-99.99,WeatherLink 5.7,2013-01-29 06:30:00,
2013-01-29 01:00:00,68.7,28.3,30.00,ESE,112,3.0,12.0,22,0.00,,,-99.99,WeatherLink 5.7,2013-01-29 07:00:00,
2013-01-29 01:30:00,68.7,28.3,29.99,ESE,112,1.0,7.0,22,0.00,,,-99.99,WeatherLink 5.7,2013-01-29 07:30:00,
2013-01-29 02:00:00,68.8,28.4,29.98,SE,135,0.0,5.0,22,0.00,,,-99.99,WeatherLink 5.7,2013-01-29 08:00:00,
2013-01-29 02:30:00,68.9,28.5,29.98,ESE,112,2.0,9.0,22,0.00,,,-99.99,WeatherLink 5.7,2013-01-29 08:30:00,
2013-01-29 03:00:00,68.7,28.3,29.97,SE,135,2.0,8.0,22,0.00,,,-99.99,WeatherLink 5.7,2013-01-29 09:00:00,
2013-01-29 03:30:00,68.6,28.2,29.96,SE,135,1.0,6.0,22,0.00,,,-99.99,WeatherLink 5.7,2013-01-29 09:30:00,
2013-01-29 04:00:00,69.5,29.0,29.96,SE,135,1.0,9.0,22,0.00,,,-99.99,WeatherLink 5.7,2013-01-29 10:00:00,
2013-01-29 04:30:00,69.7,30.2,29.95,SSE,157,2.0,10.0,23,0.00,,,-99.99,WeatherLink 5.7,2013-01-29 10:30:00,
2013-01-29 05:00:00,69.7,30.2,29.95,SE,135,2.0,9.0,23,0.00,,,-99.99,WeatherLink 5.7,2013-01-29 11:00:00,
2013-01-29 05:30:00,69.6,30.1,29.95,SE,135,2.0,12.0,23,0.00,,,-99.99,WeatherLink 5.7,2013-01-29 11:30:00,
2013-01-29 06:00:00,69.6,30.1,29.94,SSE,157,1.0,6.0,23,0.00,,,-99.99,WeatherLink 5.7,2013-01-29 12:00:00,
2013-01-29 06:30:00,69.7,30.2,29.95,SE,135,1.0,7.0,23,0.00,,,-99.99,WeatherLink 5.7,2013-01-29 12:30:00,
2013-01-29 07:00:00,69.5,30.0,29.95,ESE,112,0.0,3.0,23,0.00,,,-99.99,WeatherLink 5.7,2013-01-29 13:00:00,
2013-01-29 07:30:00,69.5,30.0,29.95,SE,135,2.0,13.0,23,0.00,,,-99.99,WeatherLink 5.7,2013-01-29 13:30:00,
2013-01-29 08:00:00,69.7,30.2,29.95,SSE,157,2.0,10.0,23,0.00,,,-99.99,WeatherLink 5.7,2013-01-29 14:00:00,
2013-01-29 08:30:00,70.4,30.8,29.96,SSE,157,2.0,9.0,23,0.00,,,-99.99,WeatherLink 5.7,2013-01-29 14:30:00,
2013-01-29 09:00:00,70.4,30.8,29.95,SSE,157,3.0,14.0,23,0.00,,,-99.99,WeatherLink 5.7,2013-01-29 15:00:00,
2013-01-29 09:30:00,70.7,30.0,29.95,SE,135,1.0,10.0,22,0.00,,,-99.99,WeatherLink 5.7,2013-01-29 15:30:00,
2013-01-29 10:00:00,72.1,31.1,29.95,SE,135,3.0,12.0,22,0.00,,,-99.99,WeatherLink 5.7,2013-01-29 16:00:00,
2013-01-29 10:30:00,73.0,30.7,29.95,South,180,4.0,12.0,21,0.00,,,-99.99,WeatherLink 5.7,2013-01-29 16:30:00,
2013-01-29 11:00:00,75.1,31.3,29.94,SE,135,4.0,14.0,20,0.00,,,-99.99,WeatherLink 5.7,2013-01-29 17:00:00,
2013-01-29 11:30:00,75.8,39.4,29.93,SSE,157,5.0,17.0,27,0.00,,,-99.99,WeatherLink 5.7,2013-01-29 17:30:00,
2013-01-29 12:00:00,75.4,39.1,29.90,South,180,4.0,14.0,27,0.00,,,-99.99,WeatherLink 5.7,2013-01-29 18:00:00,
2013-01-29 12:30:00,75.7,38.4,29.88,SSE,157,5.0,18.0,26,0.00,,,-99.99,WeatherLink 5.7,2013-01-29 18:30:00,
2013-01-29 13:00:00,75.6,39.2,29.85,SSE,157,5.0,18.0,27,0.00,,,-99.99,WeatherLink 5.7,2013-01-29 19:00:00,
2013-01-29 13:30:00,75.8,39.4,29.85,South,180,5.0,20.0,27,0.00,,,-99.99,WeatherLink 5.7,2013-01-29 19:30:00,
2013-01-29 14:00:00,76.0,39.6,29.84,South,180,5.0,17.0,27,0.00,,,-99.99,WeatherLink 5.7,2013-01-29 20:00:00,
2013-01-29 14:30:00,75.6,39.2,29.84,SSE,157,4.0,15.0,27,0.00,,,-99.99,WeatherLink 5.7,2013-01-29 20:30:00,
2013-01-29 15:00:00,74.3,35.2,29.83,SSE,157,5.0,14.0,24,0.00,,,-99.99,WeatherLink 5.7,2013-01-29 21:00:00,
2013-01-29 15:30:00,73.2,30.9,29.82,SSE,157,4.0,15.0,21,0.01,,,-99.99,WeatherLink 5.7,2013-01-29 21:30:00,
2013-01-29 16:00:00,72.9,29.4,29.80,SSE,157,4.0,15.0,20,0.01,,,-99.99,WeatherLink 5.7,2013-01-29 22:00:00,
2013-01-29 16:30:00,72.5,29.1,29.80,SSE,157,4.0,19.0,20,0.00,,,-99.99,WeatherLink 5.7,2013-01-29 22:30:00,
2013-01-29 17:00:00,72.1,28.8,29.80,South,180,3.0,14.0,20,0.00,,,-99.99,WeatherLink 5.7,2013-01-29 23:00:00,
2013-01-29 17:30:00,71.9,29.8,29.79,SSE,157,4.0,17.0,21,0.00,,,-99.99,WeatherLink 5.7,2013-01-29 23:30:00,
2013-01-29 18:00:00,71.7,29.7,29.79,SSE,157,4.0,17.0,21,0.00,,,-99.99,WeatherLink 5.7,2013-01-30 00:00:00,
2013-01-29 18:30:00,71.6,29.6,29.78,SE,135,3.0,14.0,21,0.00,,,-99.99,WeatherLink 5.7,2013-01-30 00:30:00,
2013-01-29 19:00:00,71.6,29.6,29.79,South,180,4.0,14.0,21,0.00,,,-99.99,WeatherLink 5.7,2013-01-30 01:00:00,
2013-01-29 19:30:00,71.5,30.6,29.78,SSE,157,4.0,15.0,22,0.09,,,-99.99,WeatherLink 5.7,2013-01-30 01:30:00,
2013-01-29 20:00:00,71.7,30.8,29.78,SSE,157,3.0,14.0,22,0.09,,,-99.99,WeatherLink 5.7,2013-01-30 02:00:00,
2013-01-29 20:30:00,71.6,30.7,29.77,South,180,3.0,20.0,22,0.00,,,-99.99,WeatherLink 5.7,2013-01-30 02:30:00,
2013-01-29 21:00:00,71.6,31.8,29.77,South,180,4.0,21.0,23,0.00,,,-99.99,WeatherLink 5.7,2013-01-30 03:00:00,
2013-01-29 21:30:00,71.4,31.6,29.76,South,180,4.0,18.0,23,0.00,,,-99.99,WeatherLink 5.7,2013-01-30 03:30:00,
2013-01-29 22:00:00,71.7,31.9,29.74,South,180,4.0,18.0,23,0.00,,,-99.99,WeatherLink 5.7,2013-01-30 04:00:00,
2013-01-29 22:30:00,71.9,32.1,29.75,South,180,4.0,18.0,23,0.00,,,-99.99,WeatherLink 5.7,2013-01-30 04:30:00,
2013-01-29 23:00:00,71.6,31.8,29.74,South,180,4.0,18.0,23,0.00,,,-99.99,WeatherLink 5.7,2013-01-30 05:00:00,
2013-01-29 23:30:00,71.8,32.0,29.74,South,180,4.0,16.0,23,0.00,,,-99.99,WeatherLink 5.7,2013-01-30 05:30:00,